TimeMST,TemperatureF,Dew PointF,Humidity,Sea Level PressureIn,VisibilityMPH,Wind Direction,Wind SpeedMPH,Gust SpeedMPH,PrecipitationIn,Events,Conditions,WindDirDegrees,DateUTC
12:53 AM,44.1,27.0,51,30.18,10.0,Calm,Calm,-,N/A,,Clear,0,2011-10-29 07:53:00
1:53 AM,43.0,28.0,56,30.17,10.0,Calm,Calm,-,N/A,,Clear,0,2011-10-29 08:53:00
2:53 AM,42.8,28.4,57,30.23,10.0,Calm,Calm,-,N/A,,Clear,0,2011-10-29 09:53:00
3:53 AM,42.1,28.0,58,30.16,10.0,Calm,Calm,-,N/A,,Clear,0,2011-10-29 10:53:00
4:53 AM,41.0,30.0,65,30.17,10.0,Calm,Calm,-,N/A,,Clear,0,2011-10-29 11:53:00
5:53 AM,41.0,30.0,65,30.19,10.0,Calm,Calm,-,N/A,,Clear,0,2011-10-29 12:53:00
6:53 AM,39.9,28.9,65,30.21,10.0,Calm,Calm,-,N/A,,Clear,0,2011-10-29 13:53:00
7:53 AM,46.0,28.9,51,30.22,10.0,Calm,Calm,-,N/A,,Clear,0,2011-10-29 14:53:00
8:53 AM,48.9,28.0,44,30.22,10.0,Calm,Calm,-,N/A,,Clear,0,2011-10-29 15:53:00
9:53 AM,51.1,25.0,36,30.21,10.0,Calm,Calm,-,N/A,,Clear,0,2011-10-29 16:53:00
10:53 AM,53.1,28.0,38,30.19,10.0,North,4.6,-,N/A,,Clear,360,2011-10-29 17:53:00
11:53 AM,57.0,28.0,33,30.17,10.0,North,8.1,-,N/A,,Clear,10,2011-10-29 18:53:00
12:53 PM,59.0,26.1,28,30.13,10.0,Variable,3.5,-,N/A,,Clear,0,2011-10-29 19:53:00
1:53 PM,59.0,25.0,27,30.10,10.0,Calm,Calm,-,N/A,,Clear,0,2011-10-29 20:53:00
2:53 PM,61.0,25.0,25,30.09,10.0,Variable,3.5,-,N/A,,Clear,0,2011-10-29 21:53:00
3:53 PM,62.1,27.0,26,30.07,10.0,East,3.5,-,N/A,,Clear,80,2011-10-29 22:53:00
4:53 PM,60.8,24.8,25,30.13,10.0,NNE,3.5,-,N/A,,Clear,20,2011-10-29 23:53:00
5:53 PM,60.1,25.0,26,30.08,10.0,North,3.5,-,N/A,,Clear,10,2011-10-30 00:53:00
6:53 PM,54.0,28.0,37,30.12,8.0,SSW,3.5,-,N/A,,Clear,210,2011-10-30 01:53:00
7:53 PM,53.1,28.9,40,30.11,5.0,SW,4.6,-,N/A,,Haze,230,2011-10-30 02:53:00
8:53 PM,51.1,28.9,43,30.13,10.0,Calm,Calm,-,N/A,,Clear,0,2011-10-30 03:53:00
9:53 PM,50.0,28.9,44,30.13,10.0,Calm,Calm,-,N/A,,Clear,0,2011-10-30 04:53:00
10:53 PM,48.9,28.9,46,30.13,10.0,West,3.5,-,N/A,,Clear,260,2011-10-30 05:53:00
11:53 PM,48.9,30.0,48,30.13,10.0,Calm,Calm,-,N/A,,Clear,0,2011-10-30 06:53:00